Starlink 33783

operational
NORAD ID: 63712 Int'l Des: 2025-087 Owner: SPXS Country: US Constellation: starlink
LEOCIRCULAR

Über Starlink 33783

Beschreibung wird geladen...

Live-Position

3D-Globus wird geladen...

Nächste Überflüge

Höhenverlauf

Altitude vs Time

uPlot chart will show altitude changes over time

Zweizeiliger Elementsatz

1 63712U 25087R 26033.26848472 .00020612 00000-0 70676-3 0 9996
2 63712 53.1596 24.2821 0001128 88.9049 271.2081 15.30170648 43776
Epoch: 2. Feb. 2026 • Age: 20 hours

Aktueller Status

Höhe 493.0 km
Geschwindigkeit 7.62 km/s
Subsatellitenpunkt -49.68°S, 93.29°E
Startdatum 28. Apr. 2025
Alter 0.7 years
Typ internet

Technische Details

Klassifizierung Payload
Masse 575.00 kg
Trockenmasse 530.00 kg
Gesamtmasse 575.00 kg
Länge 0.30 m
Durchmesser 4.10 m
Spannweite 29.00 m
Form Box + pan
Hersteller SPXS
Bus-Typ Starlink V2MO
Phasenstatus In Orbit
Besitzer/Staat SPXS/US

Große Konstellationen

Loading constellations...